Regional Weather Roundup
Issued by NWS Mt. Holly, NJ

Home | Current Version | Previous Version | Text Only | Print | Product List | Glossary On
Versions: 1 2 3 4 5 6 7 8 9 10 11 12 13 14 15 16 17 18 19 20 21 22 23 24 25 26 27
000
ASUS41 KPHI 210212
RWRPHI

REGIONAL WEATHER ROUNDUP
NATIONAL WEATHER SERVICE MOUNT HOLLY NJ
900 PM EST MON NOV 20 2017

NOTE:  "FAIR" INDICATES FEW OR NO CLOUDS BELOW 12,000 FEET WITH NO
SIGNIFICANT WEATHER AND/OR OBSTRUCTIONS TO VISIBILITY.

 * = STATION DOES NOT REPORT PRECIPITATION (E.G. RAIN, SNOW, ETC.)
        OR FOG.

NJZ015>026-210300-
SOUTHERN NEW JERSEY

CITY           SKY/WX    TMP DP  RH WIND       PRES   REMARKS
POMONA         CLEAR     40  28  62 SW5       30.18S
MILLVILLE      CLEAR     41  30  65 CALM      30.18S
WRIGHTSTOWN    CLEAR     37  25  61 SW9       30.13R WCI  30
MOUNT HOLLY    CLEAR     36  26  67 S3        30.16R
TRENTON        CLEAR     40  23  50 SW5       30.13S

$$
NJZ001>014-210300-
NORTHERN NEW JERSEY

CITY           SKY/WX    TMP DP  RH WIND       PRES   REMARKS
SUSSEX         CLEAR     35  24  64 SW5       30.08S WCI  31
ANDOVER*         N/A     37  24  59 S5        30.09S WCI  33
MORRISTOWN     PTCLDY    39  23  52 SW6       30.12R WCI  35
NEWARK         PTCLDY    42  23  46 SW9       30.12S
TETERBORO      CLEAR     43  23  45 SW12      30.10S
CALDWELL       CLEAR     39  24  55 SW5       30.11S
SOMERVILLE     CLEAR     35  25  66 CALM      30.11S
ALLAIRE*       CLEAR     38  24  57 SW9       30.15S WCI  31
TOMS RIVER*    CLEAR     35  25  66 SW7       30.17R WCI  29

$$
PAZ043-044-047-054-055-060>062-066>071-210300-
EASTERN PENNSYLVANIA

CITY           SKY/WX    TMP DP  RH WIND       PRES   REMARKS
PHILADELPHIA   CLEAR     41  27  57 S8        30.16S
NORTH PHILA    CLEAR     43  24  47 SW7       30.16S
BLUE BELL*     CLEAR     36  25  64 CALM      30.16R
DOYLESTOWN     CLEAR     39  22  50 SW5       30.12S
QUAKERTOWN*    CLEAR     32  25  74 CALM      30.13S
PERKASIE*      FAIR      37  23  56 SW5       30.13S WCI  34
POTTSTOWN      CLEAR     41  21  44 W7        30.15S
LANCASTER      CLEAR     35  25  66 CALM      30.14R
COATESVILLE    CLEAR     41  21  45 VRB6      30.14S
READING        CLEAR     36  25  64 CALM      30.13R
ALLENTOWN      CLEAR     36  23  59 SW7       30.11S WCI  30
MOUNT POCONO   CLEAR     32  22  66 W7        30.03S WCI  26
HAZLETON       CLEAR     34  23  64 SW3       30.08S
LEHIGHTON      FAIR      28  27  93 CALM      30.11S
WILKES BARRE   CLEAR     39  24  55 SW7       30.05S WCI  34

$$
DEZALL-MDZ008-012-015-019-020-210300-
DELAWARE AND EASTERN MARYLAND

CITY           SKY/WX    TMP DP  RH WIND       PRES   REMARKS
WILMINGTON     CLEAR     40  26  57 S6        30.17S
DOVER          CLEAR     40  24  54 S8        30.18S WCI  34
GEORGETOWN     PTCLDY    38  28  67 S7        30.21S WCI  33
EASTON         CLEAR     39  28  65 SW7       30.23R WCI  34
ABERDEEN       CLEAR     37  26  67 CALM      30.17S
PATUXENT       PTCLDY    44  29  55 S7        30.21R
OCEAN CITY     CLEAR     41  32  70 W6        30.22S
WALLOPS ISLAND CLEAR     44  31  60 SW8       30.23S
CAMBRIDGE      CLEAR     34  28  80 S3        30.21R
SALISBURY      CLEAR     37  30  75 S7        30.22R WCI  32

$$
PAZ001-021-NYZ056-072-MDZ011-DCZ001-210300-
OTHER NEARBY LOCATIONS

CITY           SKY/WX    TMP DP  RH WIND       PRES   REMARKS
HARRISBURG     CLEAR     43  25  49 SW6       30.12S
STATE COLLEGE  CLEAR     36  23  60 W6        30.07S WCI  31
WILLIAMSPORT   CLEAR     34  26  72 CALM      30.08S
BINGHAMTON     CLEAR     34  22  61 SW10      29.97F WCI  26
NEW YORK CITY  CLEAR     43  23  45 VRB5      30.13S
BALTIMORE      PTCLDY    39  24  55 SW5       30.17R
WASHINGTON DC  CLEAR     43  27  53 S7        30.19S

$$




USA.gov is the U.S. government's official web portal to all federal, state and local government web resources and services.